Warning: Javascript must be enabled to use all the features on this page!


Page Loading - Please Wait...

* We've detected you're using a mobile device. Find our Next Generation Station Page here.
Click to hideNews Bulletins

Peak Streamflow for Idaho

Click to hide state-specific text

USGS 13317000 SALMON RIVER AT WHITE BIRD ID

Idaho County, Idaho
Hydrologic Unit Code 17060209
Latitude  45°45'01", Longitude 116°19'26" NAD83
Drainage area 13,421  square miles
Gage datum 1,412.65 feet above NGVD29
Output formats
Table
Graph
Tab-separated file
peakfq (watstore) format
Reselect output format
Water
Year
Date Gage
Height
(feet)
Stream-
flow
(cfs)
1894 1894-06 37.503,Bd 120,0007,Bd
1911 1911-06-15 18.60 76,800
1912 1912-06-09 18.40 75,600
1913 1913-05-28   81,2001
1914 1914-05-24   51,5001
1915 1915-06-02 10.59 33,900
1916 1916-06-19   84,9001
1917 1917-06-18   77,0001
1920 1920-06-17   56,7001
1921 1921-06-09   88,8001
1922 1922-06-07   67,2001
1923 1923-06-12   56,0001
1924 1924-05-17   40,1001
1925 1925-05-21   58,6001
1926 1926-05-05   30,6001
1927 1927-06-09   73,8001
1928 1928-05-23   81,6001
1929 1929-05-25   48,2001
1930 1930-05-30 12.863 40,600
1931 1931-05-17 20.83 29,700
1932 1932-05-22 27.77 68,500
1933 1933-06-15 29.86 82,200
1934 1934-04-25 21.91 34,900
1935 1935-06-02 23.49 43,200
1936 1936-05-15 28.20 71,100
1937 1937-05-27 21.75 34,400
1938 1938-05-28 28.95 76,200
1939 1939-05-05 23.12 41,000
1940 1940-05-14 24.29 47,600
1941 1941-05-14 22.76 39,500
1942 1942-05-27 27.00 59,900
1943 1943-06-01 28.63 73,900
1944 1944-06-01 22.28 36,800
1945 1945-06-07 24.70 48,500
1946 1946-05-28 24.47 46,600
1947 1947-05-09 30.35 84,500
1948 1948-06-03 32.95 103,000
1949 1949-05-16 29.04 76,500
1950 1950-06-22 28.00 68,200
1951 1951-05-28 27.81 69,000
1952 1952-06-07 27.27 63,300
1953 1953-06-14 28.98 75,500
1954 1954-05-21 28.49 71,700
1955 1955-06-14 27.93 67,500
1956 1956-05-24 33.05 106,000
1957 1957-06-06 30.39 82,400
1958 1958-05-25 29.96 83,600
1959 1959-06-15 27.18 64,200
1960 1960-06-05 26.12 55,500
1961 1961-06-03 26.47 59,600
1962 1962-06-19 24.47 47,800
1963 1963-05-25 26.66 60,800
1964 1964-06-08 29.98 79,000
1965 1965-06-12 32.18 96,600
1966 1966-05-30 22.52 36,300
1967 1967-05-24 28.97 76,100
1968 1968-06-04 25.47 53,000
1969 1969-05-27 27.67 67,300
1970 1970-06-06 30.20 84,800
1971 1971-05-29 30.90 90,000
1972 1972-06-02 32.23 100,000
1973 1973-05-20 22.88 38,400
1974 1974-06-17 35.81 130,000
1975 1975-06-08 28.96 74,600
1976 1976-05-15 28.04 70,300
1977 1977-06-08 19.07 21,800
1978 1978-06-10 27.91 69,400
1979 1979-05-27 25.62 54,200
1980 1980-05-23 24.85 48,000
1981 1981-06-09 27.43 67,200
1982 1982-06-20 31.50 93,500
1983 1983-05-31 31.04 91,100
1984 1984-05-31 30.93 90,200
1985 1985-05-25 24.75 48,000
1986 1986-06-01 32.56 97,200
1987 1987-05-01 21.50 30,900
1988 1988-05-26 22.43 35,600
1989 1989-05-11 24.34 45,800
1990 1990-05-30 22.36 34,700
1991 1991-06-13 23.52 41,300
1992 1992-05-09 20.69 27,300
1993 1993-05-21 27.46 65,100
1994 1994-05-13 21.68 31,900
1995 1995-06-05 28.27 70,500
1996 1996-06-10 31.69 96,300
1997 1997-05-18 32.26 101,000
1998 1998-05-09 24.96 49,400
1999 1999-05-30 29.98 83,000
2000 2000-05-26 23.64 41,900
2001 2001-05-16 21.67 31,900
2002 2002-06-02 25.79 53,600
2003 2003-05-31 31.34 92,400
2004 2004-05-29 22.81 37,400
2005 2005-05-20 24.80 47,900
2006 2006-05-21 31.51 93,800
2007 2007-05-14 22.99 38,300
2008 2008-05-21 31.45 93,300
2009 2009-06-01 29.07 75,100
2010 2010-06-05 30.30 84,200
2011 2011-06-24 29.85 80,800
2012 2012-04-27 28.51 72,100
2013 2013-05-14 26.82 61,000
2014 2014-05-25 27.91 68,100
2015 2015-05-17 21.25 30,400
2016 2016-05-09 25.99 55,300
2017 2017-06-02 30.57 86,400
2018 2018-05-26 28.26 69,800
2019 2019-05-17 26.20 56,500
2020 2020-05-31 28.10 68,700
2021 2021-06-05 22.17 34,600
?
  Peak Gage-Height Qualification Codes.
?
  Peak Streamflow Qualification Codes.